When you browse on this site, cookies collect data to enhance your experience and personalize the content and advertising you see.
Visit our Privacy Policy to learn more. By continuing to use the site, you agree to this use of cookies and data.
  • în România
  • Lista ţărilor
  • Pe 7 zile
  • Temperatura apei
  • Meteo pe hartă
  • Widget-uri
  • user-avatar
    Intrare

    Meteo pe oră la San Luis

    Astăzi, 5 Iunie, Vineri

    Timp Temperatura Precipitaţii Vânt Presiune Umiditate
    00:00 +6°C° 0 mm 2 m/s 701 mmHg 75%
    01:00 +5°C° 0 mm 3 m/s 701 mmHg 75%
    02:00 +5°C° 0 mm 3 m/s 701 mmHg 76%
    03:00 +5°C° 0 mm 3 m/s 701 mmHg 76%
    04:00 +5°C° 0 mm 3 m/s 701 mmHg 77%
    05:00 +5°C° 0 mm 4 m/s 701 mmHg 78%
    06:00 +5°C° 0 mm 4 m/s 701 mmHg 76%
    07:00 +5°C° 0 mm 4 m/s 701 mmHg 74%
    08:00 +6°C° 0 mm 4 m/s 701 mmHg 72%
    09:00 +8°C° 0 mm 4 m/s 701 mmHg 61%
    10:00 +12°C° 0 mm 4 m/s 702 mmHg 51%
    11:00 +15°C° 0 mm 4 m/s 702 mmHg 40%
    12:00 +15°C° 0 mm 4 m/s 701 mmHg 38%
    13:00 +17°C° 0 mm 3 m/s 701 mmHg 35%
    14:00 +18°C° 0 mm 3 m/s 700 mmHg 33%
    15:00 +17°C° 0 mm 2 m/s 699 mmHg 37%
    16:00 +15°C° 0 mm 1 m/s 699 mmHg 41%
    17:00 +14°C° 0 mm 1 m/s 698 mmHg 46%
    18:00 +13°C° 0 mm 1 m/s 698 mmHg 50%
    19:00 +12°C° 0 mm 2 m/s 698 mmHg 54%
    20:00 +9°C° 0 mm 2 m/s 698 mmHg 57%
    21:00 +9°C° 0 mm 2 m/s 699 mmHg 60%
    22:00 +8°C° 0 mm 2 m/s 699 mmHg 62%
    23:00 +8°C° 0 mm 2 m/s 699 mmHg 65%

    Mâine, 6 Iunie, Sâmbătă

    Timp Temperatura Precipitaţii Vânt Presiune Umiditate
    00:00 +8°C° 0 mm 2 m/s 698 mmHg 64%
    01:00 +8°C° 0 mm 2 m/s 698 mmHg 64%
    02:00 +8°C° 0 mm 2 m/s 698 mmHg 63%
    03:00 +7°C° 0 mm 2 m/s 697 mmHg 64%
    04:00 +7°C° 0 mm 2 m/s 697 mmHg 64%
    05:00 +7°C° 0 mm 2 m/s 697 mmHg 65%
    06:00 +7°C° 0 mm 2 m/s 697 mmHg 61%
    07:00 +8°C° 0 mm 2 m/s 697 mmHg 58%
    08:00 +8°C° 0 mm 2 m/s 697 mmHg 55%
    09:00 +12°C° 0 mm 2 m/s 697 mmHg 46%
    10:00 +14°C° 0 mm 3 m/s 698 mmHg 37%
    11:00 +18°C° 0 mm 3 m/s 698 mmHg 29%
    12:00 +19°C° 0 mm 3 m/s 698 mmHg 27%
    13:00 +20°C° 0 mm 3 m/s 697 mmHg 25%
    14:00 +21°C° 0 mm 4 m/s 696 mmHg 23%
    15:00 +20°C° 0 mm 3 m/s 696 mmHg 26%
    16:00 +18°C° 0 mm 3 m/s 696 mmHg 30%
    17:00 +17°C° 0 mm 3 m/s 695 mmHg 33%
    18:00 +14°C° 0 mm 3 m/s 695 mmHg 37%
    19:00 +12°C° 0 mm 3 m/s 695 mmHg 42%
    20:00 +10°C° 0 mm 2 m/s 695 mmHg 46%
    21:00 +10°C° 0 mm 2 m/s 695 mmHg 48%
    22:00 +9°C° 0 mm 2 m/s 695 mmHg 50%
    23:00 +8°C° 0 mm 2 m/s 695 mmHg 51%

    Poimâine, 7 Iunie, Duminică

    Timp Temperatura Precipitaţii Vânt Presiune Umiditate
    00:00 +8°C° 0 mm 2 m/s 695 mmHg 53%
    01:00 +8°C° 0 mm 2 m/s 695 mmHg 54%
    02:00 +8°C° 0 mm 2 m/s 695 mmHg 55%
    03:00 +8°C° 0 mm 2 m/s 695 mmHg 55%
    04:00 +8°C° 0 mm 2 m/s 695 mmHg 56%
    05:00 +8°C° 0 mm 2 m/s 695 mmHg 56%
    06:00 +8°C° 0 mm 1 m/s 696 mmHg 54%
    07:00 +8°C° 0 mm 1 m/s 696 mmHg 52%
    08:00 +7°C° 0 mm 0 m/s 696 mmHg 51%
    09:00 +12°C° 0 mm 1 m/s 697 mmHg 43%
    10:00 +15°C° 0 mm 2 m/s 698 mmHg 36%
    11:00 +18°C° 0 mm 2 m/s 699 mmHg 28%
    12:00 +19°C° 0 mm 3 m/s 698 mmHg 28%
    13:00 +19°C° 0 mm 3 m/s 698 mmHg 28%
    14:00 +20°C° 0 mm 3 m/s 697 mmHg 29%
    15:00 +19°C° 0 mm 3 m/s 697 mmHg 33%
    16:00 +18°C° 0 mm 3 m/s 697 mmHg 37%
    17:00 +17°C° 0 mm 2 m/s 697 mmHg 42%
    18:00 +14°C° 0 mm 2 m/s 697 mmHg 49%
    19:00 +12°C° 0 mm 1 m/s 696 mmHg 57%
    20:00 +10°C° 0 mm 1 m/s 696 mmHg 65%
    21:00 +10°C° 0 mm 1 m/s 696 mmHg 66%
    22:00 +10°C° 0 mm 1 m/s 697 mmHg 66%
    23:00 +9°C° 0 mm 2 m/s 697 mmHg 67%

    8 Iunie, Luni

    Timp Temperatura Precipitaţii Vânt Presiune Umiditate
    00:00 +8°C° 0 mm 2 m/s 697 mmHg 70%
    01:00 +8°C° 0 mm 2 m/s 697 mmHg 72%
    02:00 +8°C° 0 mm 2 m/s 697 mmHg 75%
    03:00 +7°C° 0 mm 2 m/s 697 mmHg 76%
    04:00 +7°C° 0 mm 2 m/s 697 mmHg 76%
    05:00 +8°C° 0 mm 1 m/s 697 mmHg 77%
    06:00 +8°C° 0 mm 1 m/s 697 mmHg 76%
    07:00 +8°C° 0 mm 1 m/s 697 mmHg 75%
    08:00 +8°C° 0 mm 1 m/s 697 mmHg 74%
    09:00 +10°C° 0 mm 2 m/s 698 mmHg 63%
    10:00 +14°C° 0 mm 3 m/s 699 mmHg 52%
    11:00 +18°C° 0 mm 3 m/s 700 mmHg 41%
    12:00 +19°C° 0 mm 3 m/s 699 mmHg 37%
    13:00 +19°C° 0 mm 3 m/s 699 mmHg 32%
    14:00 +20°C° 0 mm 3 m/s 698 mmHg 27%
    15:00 +19°C° 0 mm 2 m/s 698 mmHg 32%
    16:00 +17°C° 0 mm 2 m/s 698 mmHg 36%
    17:00 +15°C° 0 mm 1 m/s 697 mmHg 41%
    18:00 +14°C° 0 mm 2 m/s 698 mmHg 43%
    19:00 +13°C° 0 mm 3 m/s 698 mmHg 45%
    20:00 +12°C° 0 mm 3 m/s 698 mmHg 46%
    21:00 +11°C° 0 mm 3 m/s 698 mmHg 51%
    22:00 +11°C° 0 mm 3 m/s 698 mmHg 56%
    23:00 +10°C° 0 mm 3 m/s 699 mmHg 60%

    9 Iunie, Marţi

    Timp Temperatura Precipitaţii Vânt Presiune Umiditate
    00:00 +10°C° 0 mm 3 m/s 699 mmHg 63%
    01:00 +9°C° 0 mm 3 m/s 699 mmHg 65%
    02:00 +9°C° 0 mm 3 m/s 699 mmHg 68%
    03:00 +8°C° 0 mm 3 m/s 698 mmHg 70%
    04:00 +8°C° 0 mm 3 m/s 698 mmHg 73%
    05:00 +6°C° 0 mm 4 m/s 698 mmHg 75%
    06:00 +6°C° 0 mm 4 m/s 698 mmHg 74%
    07:00 +7°C° 0 mm 4 m/s 698 mmHg 73%
    08:00 +7°C° 0 mm 4 m/s 699 mmHg 72%
    09:00 +11°C° 0 mm 4 m/s 699 mmHg 62%
    10:00 +13°C° 0 mm 4 m/s 699 mmHg 51%
    11:00 +17°C° 0 mm 4 m/s 700 mmHg 41%
    12:00 +17°C° 0 mm 5 m/s 699 mmHg 39%
    13:00 +19°C° 0 mm 5 m/s 698 mmHg 37%
    14:00 +19°C° 0 mm 5 m/s 697 mmHg 36%
    15:00 +18°C° 0 mm 4 m/s 697 mmHg 39%
    16:00 +17°C° 0 mm 4 m/s 696 mmHg 43%
    17:00 +16°C° 0 mm 3 m/s 696 mmHg 47%
    18:00 +14°C° 0 mm 2 m/s 695 mmHg 54%
    19:00 +12°C° 0 mm 2 m/s 695 mmHg 62%
    20:00 +9°C° 0 mm 2 m/s 694 mmHg 69%
    21:00 +9°C° 0 mm 2 m/s 694 mmHg 69%
    22:00 +9°C° 0 mm 2 m/s 694 mmHg 69%
    23:00 +9°C° 0 mm 2 m/s 694 mmHg 69%

    10 Iunie, Miercuri

    Timp Temperatura Precipitaţii Vânt Presiune Umiditate
    00:00 +9°C° 0 mm 2 m/s 694 mmHg 72%
    01:00 +9°C° 0 mm 3 m/s 694 mmHg 74%
    02:00 +9°C° 0 mm 3 m/s 694 mmHg 77%
    03:00 +8°C° 0 mm 2 m/s 694 mmHg 79%
    04:00 +8°C° 0 mm 2 m/s 694 mmHg 81%
    05:00 +7°C° 0 mm 2 m/s 694 mmHg 83%
    06:00 +8°C° 0 mm 1 m/s 694 mmHg 84%
    07:00 +8°C° 0 mm 1 m/s 695 mmHg 85%
    08:00 +8°C° 0 mm 1 m/s 696 mmHg 86%
    09:00 +11°C° 0 mm 1 m/s 696 mmHg 75%
    10:00 +13°C° 0 mm 1 m/s 697 mmHg 65%
    11:00 +16°C° 0 mm 1 m/s 698 mmHg 55%
    12:00 +18°C° 0 mm 1 m/s 697 mmHg 51%
    13:00 +18°C° 0 mm 1 m/s 697 mmHg 47%
    14:00 +19°C° 0 mm 1 m/s 697 mmHg 44%
    15:00 +18°C° 0 mm 1 m/s 696 mmHg 47%
    16:00 +16°C° 0 mm 1 m/s 696 mmHg 50%
    17:00 +15°C° 0 mm 1 m/s 695 mmHg 53%
    18:00 +14°C° 0 mm 1 m/s 695 mmHg 58%
    19:00 +12°C° 0 mm 2 m/s 695 mmHg 62%
    20:00 +10°C° 0 mm 3 m/s 695 mmHg 66%
    21:00 +10°C° 0 mm 2 m/s 695 mmHg 69%
    22:00 +9°C° 0 mm 2 m/s 695 mmHg 71%
    23:00 +9°C° 0 mm 2 m/s 695 mmHg 74%
    Arată mai mult